| time (UTC) | temp F | wind direction | speed MPH | gust MPH | rain 1hr in | rain 24hr in | rain mn in | humidity % | barometer mb |
| 20260505013941 | 65 | 114 | 0.0 | 0.0 | 0.00 | 0.00 | 0.00 | 58 | 1020.5 |
| 20260505012941 | 64 | 90 | 0.0 | 0.0 | 0.00 | 0.00 | 0.00 | 60 | 1020.5 |
| 20260505011941 | 63 | 136 | 0.0 | 0.0 | 0.00 | 0.00 | 0.00 | 60 | 1020.5 |
| 20260505010940 | 63 | 117 | 0.0 | 0.0 | 0.00 | 0.00 | 0.00 | 60 | 1020.5 |
| 20260505005940 | 62 | 66 | 0.0 | 0.0 | 0.00 | 0.00 | 0.00 | 64 | 1020.4 |
| 20260505004939 | 62 | 84 | 0.0 | 0.0 | 0.00 | 0.00 | 0.00 | 63 | 1020.3 |
| 20260505003939 | 61 | 101 | 0.0 | 0.0 | 0.00 | 0.00 | 0.00 | 65 | 1020.3 |
| 20260505002939 | 60 | 127 | 0.0 | 0.0 | 0.00 | 0.00 | 0.00 | 66 | 1020.3 |
| 20260505001939 | 60 | 85 | 0.0 | 0.0 | 0.00 | 0.00 | 0.00 | 68 | 1020.3 |
| 20260505000938 | 60 | 64 | 0.0 | 0.0 | 0.00 | 0.00 | 0.00 | 67 | 1020.2 |
| 20260504235938 | 60 | 75 | 0.0 | 0.0 | 0.00 | 0.00 | 0.00 | 69 | 1020.3 |
| 20260504234937 | 58 | 102 | 0.0 | 0.0 | 0.00 | 0.00 | 0.00 | 70 | 1020.3 |
| 20260504233937 | 58 | 150 | 0.0 | 0.0 | 0.00 | 0.00 | 0.00 | 71 | 1020.3 |
| 20260504232936 | 58 | 117 | 0.0 | 0.0 | 0.00 | 0.00 | 0.00 | 71 | 1020.5 |
| 20260504231936 | 58 | 98 | 0.0 | 0.0 | 0.00 | 0.00 | 0.00 | 69 | 1020.4 |
| 20260504230936 | 58 | 124 | 0.0 | 0.0 | 0.00 | 0.00 | 0.00 | 70 | 1020.4 |
| 20260504225935 | 57 | 117 | 0.0 | 0.0 | 0.00 | 0.00 | 0.00 | 71 | 1020.3 |
| 20260504224935 | 57 | 110 | 0.0 | 0.0 | 0.00 | 0.00 | 0.00 | 72 | 1020.3 |
| 20260504223935 | 56 | 127 | 0.0 | 0.0 | 0.00 | 0.00 | 0.00 | 72 | 1020.4 |
| 20260504222934 | 56 | 116 | 0.0 | 0.0 | 0.00 | 0.00 | 0.00 | 73 | 1020.3 |
| 20260504221934 | 56 | 117 | 0.0 | 0.0 | 0.00 | 0.00 | 0.00 | 76 | 1020.3 |
| 20260504220932 | 54 | 13 | 0.0 | 0.0 | 0.00 | 0.00 | 0.00 | 78 | 1020.3 |
| 20260504215932 | 54 | 16 | 0.0 | 0.0 | 0.00 | 0.00 | 0.00 | 80 | 1020.3 |
| 20260504214931 | 53 | 72 | 0.0 | 0.0 | 0.00 | 0.00 | 0.00 | 80 | 1020.1 |
| 20260504213931 | 52 | 300 | 0.0 | 0.0 | 0.00 | 0.00 | 0.00 | 83 | 1020.0 |
| 20260504212931 | 51 | 272 | 0.0 | 0.0 | 0.00 | 0.00 | 0.00 | 83 | 1019.9 |
| 20260504211930 | 51 | 287 | 0.0 | 0.0 | 0.00 | 0.00 | 0.00 | 85 | 1019.7 |
| 20260504210930 | 50 | 278 | 0.0 | 0.0 | 0.00 | 0.00 | 0.00 | 85 | 1019.7 |
| 20260504205930 | 49 | 302 | 0.0 | 0.0 | 0.00 | 0.00 | 0.00 | 87 | 1019.6 |
| 20260504204930 | 49 | 311 | 0.0 | 0.0 | 0.00 | 0.00 | 0.00 | 90 | 1019.5 |
| 20260504203929 | 48 | 281 | 0.0 | 0.0 | 0.00 | 0.00 | 0.00 | 92 | 1019.5 |
| 20260504202928 | 47 | 281 | 0.0 | 0.0 | 0.00 | 0.00 | 0.00 | 92 | 1019.4 |
| 20260504201928 | 47 | 295 | 0.0 | 0.0 | 0.00 | 0.00 | 0.00 | 91 | 1019.2 |
| 20260504200928 | 47 | 277 | 0.0 | 0.0 | 0.00 | 0.00 | 0.00 | 90 | 1019.2 |
| 20260504195927 | 48 | 281 | 0.0 | 0.0 | 0.00 | 0.00 | 0.00 | 89 | 1019.0 |
| 20260504194927 | 48 | 129 | 0.0 | 0.0 | 0.00 | 0.00 | 0.00 | 87 | 1019.0 |
| 20260504193927 | 49 | 129 | 0.0 | 0.0 | 0.00 | 0.00 | 0.00 | 87 | 1018.8 |
| 20260504192926 | 50 | 113 | 0.0 | 0.0 | 0.00 | 0.00 | 0.00 | 86 | 1018.6 |
| 20260504191926 | 50 | 24 | 0.0 | 0.0 | 0.00 | 0.00 | 0.00 | 85 | 1018.6 |
| 20260504190925 | 50 | 286 | 0.0 | 0.0 | 0.00 | 0.00 | 0.00 | 84 | 1018.4 |
| 20260504184925 | 50 | 280 | 0.0 | 0.0 | 0.00 | 0.00 | 0.00 | 85 | 1018.3 |
| 20260504183925 | 50 | 307 | 0.0 | 0.0 | 0.00 | 0.00 | 0.00 | 85 | 1018.2 |
| 20260504182924 | 50 | 297 | 2.0 | 0.0 | 0.00 | 0.00 | 0.00 | 85 | 1018.2 |
| 20260504181924 | 50 | 256 | 0.0 | 0.0 | 0.00 | 0.00 | 0.00 | 84 | 1018.1 |
| 20260504180923 | 51 | 278 | 0.0 | 0.0 | 0.00 | 0.00 | 0.00 | 84 | 1018.1 |
| 20260504175923 | 51 | 280 | 0.0 | 0.0 | 0.00 | 0.00 | 0.00 | 84 | 1017.9 |
| 20260504174922 | 51 | 336 | 0.0 | 0.0 | 0.00 | 0.00 | 0.00 | 84 | 1017.7 |
| 20260504173922 | 51 | 295 | 0.0 | 0.0 | 0.00 | 0.00 | 0.00 | 84 | 1017.6 |
| 20260504172922 | 50 | 267 | 0.0 | 0.0 | 0.00 | 0.00 | 0.00 | 85 | 1017.5 |
| 20260504171921 | 50 | 304 | 0.0 | 0.0 | 0.00 | 0.00 | 0.00 | 87 | 1017.4 |
| 20260504170921 | 50 | 281 | 0.0 | 0.0 | 0.00 | 0.00 | 0.00 | 86 | 1017.4 |
| 20260504150916 | 52 | 294 | 0.0 | 0.0 | 0.00 | 0.00 | 0.00 | 82 | 1017.1 |
| 20260504140913 | 52 | 285 | 0.0 | 0.0 | 0.00 | 0.00 | 0.00 | 81 | 1017.3 |
| 20260504081852 | 61 | 320 | 2.0 | 0.0 | 0.00 | 0.00 | 0.00 | 53 | 1012.9 |
| 20260504080851 | 62 | 25 | 3.0 | 0.0 | 0.00 | 0.00 | 0.00 | 50 | 1012.8 |
| 20260504045843 | 65 | 238 | 3.0 | 0.0 | 0.00 | 0.00 | 0.00 | 45 | 1010.3 |
| 20260504044845 | 64 | 327 | 3.0 | 0.0 | 0.00 | 0.00 | 0.00 | 47 | 1010.4 |
| 20260504043842 | 64 | 308 | 4.0 | 0.0 | 0.00 | 0.00 | 0.00 | 46 | 1010.3 |
| 20260504042843 | 63 | 266 | 7.0 | 0.0 | 0.00 | 0.00 | 0.00 | 47 | 1010.3 |
| 20260504041841 | 64 | 284 | 4.0 | 0.0 | 0.00 | 0.00 | 0.00 | 47 | 1010.1 |
| 20260504040841 | 64 | 259 | 8.0 | 0.0 | 0.00 | 0.00 | 0.00 | 45 | 1010.0 |
| 20260504035841 | 64 | 17 | 2.0 | 0.0 | 0.00 | 0.00 | 0.00 | 44 | 1010.0 |
| 20260504034839 | 65 | 313 | 3.0 | 0.0 | 0.00 | 0.00 | 0.00 | 43 | 1009.7 |
| 20260504033952 | 65 | 199 | 6.0 | 0.0 | 0.00 | 0.00 | 0.00 | 43 | 1009.5 |
| 20260504032838 | 64 | 284 | 7.0 | 0.0 | 0.00 | 0.00 | 0.00 | 44 | 1009.6 |
| 20260504030838 | 65 | 286 | 8.0 | 0.0 | 0.00 | 0.00 | 0.00 | 44 | 1009.4 |
| 20260504025837 | 65 | 294 | 4.0 | 0.0 | 0.00 | 0.00 | 0.00 | 43 | 1009.1 |
| 20260504024837 | 65 | 358 | 11.0 | 0.0 | 0.00 | 0.00 | 0.00 | 43 | 1009.0 |
| 20260504023837 | 65 | 323 | 0.0 | 0.0 | 0.00 | 0.00 | 0.00 | 43 | 1009.1 |
| 20260504022836 | 65 | 309 | 5.0 | 0.0 | 0.00 | 0.00 | 0.00 | 43 | 1008.9 |
| 20260504021836 | 65 | 319 | 6.0 | 0.0 | 0.00 | 0.00 | 0.00 | 45 | 1008.9 |
| 20260504020836 | 65 | 290 | 4.0 | 0.0 | 0.00 | 0.00 | 0.00 | 47 | 1008.7 |
| 20260504015835 | 64 | 250 | 3.0 | 0.0 | 0.00 | 0.00 | 0.00 | 49 | 1008.7 |
| 20260504014835 | 64 | 262 | 7.0 | 0.0 | 0.00 | 0.00 | 0.00 | 48 | 1008.6 |